| time (UTC) | temp F | wind direction | speed MPH | gust MPH | rain 1hr in | rain 24hr in | rain mn in | humidity % | barometer mb |
| 20260507051559 | 29 | 117 | 0.0 | 0.0 | 0.00 | 0.17 | 0.17 | 92 | 1019.0 |
| 20260507051524 | 29 | 119 | 0.0 | 0.0 | 0.00 | 0.17 | 0.17 | 91 | 1019.4 |
| 20260507051057 | 29 | 117 | 0.0 | 0.0 | 0.00 | 0.17 | 0.17 | 92 | 1019.0 |
| 20260507050556 | 29 | 117 | 0.0 | 0.0 | 0.00 | 0.17 | 0.17 | 91 | 1018.8 |
| 20260507050058 | 29 | 117 | 0.0 | 0.0 | 0.00 | 0.17 | 0.17 | 92 | 1018.8 |
| 20260507050027 | 29 | 119 | 0.0 | 1.0 | 0.00 | 0.17 | 0.17 | 91 | 1019.2 |
| 20260507045054 | 30 | 117 | 1.0 | 2.0 | 0.00 | 0.17 | 0.17 | 91 | 1018.8 |
| 20260507044556 | 30 | 117 | 0.0 | 2.0 | 0.00 | 0.17 | 0.17 | 91 | 1018.8 |
| 20260507044526 | 29 | 119 | 0.0 | 2.0 | 0.00 | 0.17 | 0.17 | 91 | 1019.3 |
| 20260507044054 | 30 | 117 | 0.0 | 2.0 | 0.00 | 0.17 | 0.17 | 91 | 1018.8 |
| 20260507043552 | 30 | 117 | 0.0 | 3.0 | 0.00 | 0.17 | 0.17 | 91 | 1018.8 |
| 20260507043051 | 30 | 117 | 1.0 | 3.0 | 0.00 | 0.17 | 0.17 | 91 | 1019.0 |
| 20260507043026 | 30 | 120 | 0.0 | 3.0 | 0.00 | 0.17 | 0.17 | 90 | 1019.3 |
| 20260507042553 | 30 | 132 | 0.0 | 3.0 | 0.00 | 0.17 | 0.17 | 91 | 1019.0 |
| 20260507042051 | 30 | 132 | 1.0 | 4.0 | 0.00 | 0.17 | 0.17 | 91 | 1018.8 |
| 20260507041528 | 30 | 116 | 0.0 | 4.0 | 0.00 | 0.17 | 0.17 | 90 | 1019.4 |
| 20260507041048 | 31 | 160 | 0.0 | 3.0 | 0.00 | 0.17 | 0.17 | 91 | 1019.0 |
| 20260507040548 | 31 | 160 | 1.0 | 5.0 | 0.00 | 0.17 | 0.17 | 91 | 1019.0 |
| 20260507040050 | 31 | 124 | 1.0 | 5.0 | 0.00 | 0.17 | 0.17 | 90 | 1019.0 |
| 20260507040022 | 31 | 126 | 0.0 | 6.0 | 0.00 | 0.17 | 0.17 | 90 | 1019.4 |
| 20260507035546 | 31 | 148 | 1.0 | 5.0 | 0.00 | 0.17 | 0.17 | 90 | 1019.0 |
| 20260507034543 | 31 | 153 | 2.0 | 4.0 | 0.00 | 0.17 | 0.17 | 90 | 1019.0 |
| 20260507034506 | 31 | 155 | 2.0 | 5.0 | 0.00 | 0.17 | 0.17 | 89 | 1019.3 |
| 20260507034045 | 31 | 154 | 1.0 | 4.0 | 0.00 | 0.17 | 0.17 | 89 | 1018.8 |
| 20260507033539 | 31 | 135 | 1.0 | 4.0 | 0.00 | 0.17 | 0.17 | 89 | 1018.8 |
| 20260507033034 | 32 | 126 | 1.0 | 4.0 | 0.00 | 0.17 | 0.17 | 88 | 1018.8 |
| 20260507033018 | 31 | 128 | 0.0 | 4.0 | 0.00 | 0.17 | 0.17 | 88 | 1019.3 |
| 20260507032527 | 32 | 126 | 1.0 | 4.0 | 0.00 | 0.17 | 0.17 | 88 | 1018.8 |
| 20260507032019 | 32 | 150 | 1.0 | 5.0 | 0.00 | 0.17 | 0.17 | 87 | 1018.8 |
| 20260507031520 | 32 | 150 | 1.0 | 5.0 | 0.00 | 0.17 | 0.17 | 87 | 1018.7 |
| 20260507031515 | 31 | 157 | 2.0 | 6.0 | 0.00 | 0.17 | 0.17 | 86 | 1019.1 |
| 20260507031020 | 32 | 138 | 1.0 | 4.0 | 0.00 | 0.17 | 0.17 | 86 | 1018.7 |
| 20260507030517 | 32 | 146 | 1.0 | 4.0 | 0.00 | 0.17 | 0.17 | 86 | 1018.6 |
| 20260507030019 | 32 | 115 | 1.0 | 4.0 | 0.00 | 0.17 | 0.17 | 84 | 1019.0 |
| 20260507025520 | 32 | 140 | 1.0 | 4.0 | 0.00 | 0.17 | 0.17 | 83 | 1018.5 |
| 20260507024525 | 32 | 150 | 1.0 | 5.0 | 0.00 | 0.17 | 0.17 | 82 | 1018.9 |
| 20260507024519 | 32 | 155 | 1.0 | 4.0 | 0.00 | 0.17 | 0.17 | 82 | 1018.5 |
| 20260507024018 | 33 | 150 | 1.0 | 4.0 | 0.00 | 0.17 | 0.17 | 82 | 1018.5 |
| 20260507023519 | 33 | 137 | 2.0 | 4.0 | 0.00 | 0.17 | 0.17 | 81 | 1018.5 |
| 20260507023028 | 32 | 175 | 1.0 | 6.0 | 0.00 | 0.17 | 0.17 | 81 | 1018.9 |
| 20260507023014 | 33 | 175 | 2.0 | 5.0 | 0.00 | 0.17 | 0.17 | 81 | 1018.5 |
| 20260507022514 | 33 | 148 | 3.0 | 6.0 | 0.00 | 0.17 | 0.17 | 81 | 1018.4 |
| 20260507022014 | 33 | 158 | 3.0 | 8.0 | 0.00 | 0.17 | 0.17 | 80 | 1018.5 |
| 20260507021514 | 33 | 204 | 2.0 | 8.0 | 0.00 | 0.17 | 0.17 | 81 | 1018.4 |
| 20260507021510 | 33 | 130 | 3.0 | 9.0 | 0.00 | 0.17 | 0.17 | 80 | 1018.9 |
| 20260507021013 | 33 | 177 | 2.0 | 6.0 | 0.00 | 0.17 | 0.17 | 80 | 1018.2 |
| 20260507020515 | 33 | 181 | 2.0 | 7.0 | 0.00 | 0.17 | 0.17 | 80 | 1018.2 |
| 20260507020018 | 33 | 183 | 2.0 | 7.0 | 0.00 | 0.17 | 0.17 | 78 | 1018.8 |
| 20260507020014 | 34 | 181 | 2.0 | 7.0 | 0.00 | 0.17 | 0.17 | 78 | 1018.2 |
| 20260507015514 | 34 | 188 | 2.0 | 5.0 | 0.00 | 0.17 | 0.17 | 77 | 1018.2 |
| 20260507015014 | 34 | 154 | 2.0 | 5.0 | 0.00 | 0.17 | 0.17 | 77 | 1018.2 |
| 20260507014531 | 34 | 152 | 2.0 | 10.0 | 0.00 | 0.18 | 0.17 | 76 | 1018.8 |
| 20260507014513 | 35 | 190 | 3.0 | 8.0 | 0.00 | 0.18 | 0.17 | 77 | 1018.2 |
| 20260507014013 | 35 | 188 | 3.0 | 8.0 | 0.00 | 0.18 | 0.17 | 77 | 1018.2 |
| 20260507013513 | 35 | 163 | 3.0 | 8.0 | 0.00 | 0.18 | 0.17 | 77 | 1018.2 |
| 20260507013024 | 34 | 155 | 5.0 | 10.0 | 0.00 | 0.18 | 0.17 | 76 | 1018.8 |
| 20260507013014 | 35 | 165 | 3.0 | 8.0 | 0.00 | 0.18 | 0.17 | 77 | 1018.2 |
| 20260507012014 | 35 | 167 | 3.0 | 7.0 | 0.00 | 0.18 | 0.17 | 76 | 1018.1 |
| 20260507011529 | 34 | 144 | 4.0 | 9.0 | 0.00 | 0.18 | 0.17 | 76 | 1018.7 |
| 20260507011516 | 35 | 128 | 3.0 | 7.0 | 0.00 | 0.18 | 0.17 | 76 | 1018.1 |
| 20260507011017 | 35 | 141 | 3.0 | 6.0 | 0.00 | 0.18 | 0.17 | 75 | 1018.2 |
| 20260507010513 | 35 | 162 | 3.0 | 7.0 | 0.00 | 0.18 | 0.17 | 75 | 1018.2 |
| 20260507010014 | 35 | 172 | 4.0 | 8.0 | 0.00 | 0.18 | 0.17 | 74 | 1018.1 |
| 20260507005515 | 36 | 186 | 5.0 | 11.0 | 0.00 | 0.19 | 0.17 | 73 | 1018.1 |
| 20260507004521 | 36 | 119 | 6.0 | 11.0 | 0.00 | 0.19 | 0.17 | 72 | 1018.4 |
| 20260507004514 | 36 | 141 | 4.0 | 10.0 | 0.00 | 0.19 | 0.17 | 73 | 1018.0 |
| 20260507004014 | 37 | 142 | 3.0 | 8.0 | 0.00 | 0.19 | 0.17 | 72 | 1018.0 |
| 20260507003023 | 36 | 192 | 3.0 | 7.0 | 0.00 | 0.19 | 0.17 | 71 | 1018.3 |
| 20260507003014 | 37 | 193 | 3.0 | 7.0 | 0.00 | 0.19 | 0.17 | 71 | 1018.0 |
| 20260507002514 | 37 | 162 | 3.0 | 8.0 | 0.00 | 0.19 | 0.17 | 72 | 1017.9 |
| 20260507002014 | 37 | 150 | 3.0 | 8.0 | 0.00 | 0.19 | 0.17 | 71 | 1017.9 |
| 20260507001529 | 37 | 198 | 2.0 | 10.0 | 0.00 | 0.19 | 0.17 | 69 | 1018.2 |
| 20260507001515 | 37 | 188 | 3.0 | 9.0 | 0.00 | 0.19 | 0.17 | 70 | 1017.9 |
| 20260507000510 | 37 | 142 | 3.0 | 9.0 | 0.00 | 0.19 | 0.17 | 70 | 1018.0 |
| 20260507000036 | 37 | 171 | 4.0 | 10.0 | 0.00 | 0.19 | 0.17 | 68 | 1018.3 |
| 20260507000008 | 37 | 162 | 3.0 | 9.0 | 0.00 | 0.19 | 0.17 | 69 | 1017.9 |
| 20260506235007 | 38 | 175 | 4.0 | 9.0 | 0.00 | 0.19 | 0.17 | 68 | 1017.9 |
| 20260506234516 | 37 | 185 | 6.0 | 10.0 | 0.00 | 0.19 | 0.17 | 67 | 1018.2 |
| 20260506234504 | 38 | 191 | 4.0 | 8.0 | 0.00 | 0.20 | 0.17 | 68 | 1017.9 |
| 20260506233502 | 38 | 238 | 2.0 | 10.0 | 0.00 | 0.20 | 0.17 | 69 | 1017.9 |
| 20260506233021 | 38 | 157 | 2.0 | 8.0 | 0.00 | 0.20 | 0.17 | 66 | 1018.3 |
| 20260506232457 | 38 | 160 | 3.0 | 7.0 | 0.00 | 0.20 | 0.17 | 67 | 1017.9 |
| 20260506232000 | 38 | 164 | 1.0 | 7.0 | 0.00 | 0.21 | 0.17 | 65 | 1018.0 |
| 20260506231523 | 38 | 153 | 0.0 | 4.0 | 0.00 | 0.21 | 0.17 | 63 | 1018.3 |
| 20260506231457 | 38 | 152 | 1.0 | 4.0 | 0.00 | 0.21 | 0.17 | 63 | 1017.9 |
| 20260506230955 | 38 | 200 | 1.0 | 6.0 | 0.00 | 0.21 | 0.17 | 64 | 1017.9 |
| 20260506230455 | 39 | 258 | 2.0 | 6.0 | 0.00 | 0.21 | 0.17 | 65 | 1017.9 |
| 20260506230028 | 38 | 36 | 1.0 | 6.0 | 0.00 | 0.21 | 0.17 | 62 | 1018.1 |
| 20260506225953 | 39 | 30 | 2.0 | 5.0 | 0.00 | 0.21 | 0.17 | 62 | 1017.9 |
| 20260506225447 | 39 | 282 | 1.0 | 5.0 | 0.00 | 0.21 | 0.17 | 64 | 1017.7 |
| 20260506224942 | 39 | 167 | 2.0 | 5.0 | 0.00 | 0.21 | 0.17 | 62 | 1017.7 |
| 20260506224531 | 38 | 259 | 2.0 | 4.0 | 0.00 | 0.21 | 0.17 | 65 | 1018.0 |
| 20260506224435 | 39 | 231 | 2.0 | 4.0 | 0.00 | 0.21 | 0.17 | 66 | 1017.7 |
| 20260506223930 | 38 | 221 | 1.0 | 4.0 | 0.00 | 0.21 | 0.17 | 64 | 1017.9 |
| 20260506223423 | 38 | 272 | 1.0 | 4.0 | 0.00 | 0.21 | 0.17 | 67 | 1017.6 |
| 20260506223018 | 37 | 171 | 0.0 | 4.0 | 0.00 | 0.21 | 0.17 | 64 | 1018.0 |
| 20260506222917 | 37 | 171 | 2.0 | 4.0 | 0.00 | 0.21 | 0.17 | 63 | 1017.7 |
| 20260506222411 | 37 | 51 | 3.0 | 5.0 | 0.00 | 0.21 | 0.17 | 67 | 1017.9 |
| 20260506221906 | 37 | 69 | 2.0 | 5.0 | 0.00 | 0.21 | 0.17 | 67 | 1017.9 |
| 20260506221524 | 37 | 73 | 2.0 | 6.0 | 0.00 | 0.21 | 0.17 | 64 | 1018.2 |
| 20260506221359 | 38 | 100 | 2.0 | 5.0 | 0.00 | 0.21 | 0.17 | 65 | 1017.9 |
| 20260506220858 | 38 | 51 | 2.0 | 5.0 | 0.00 | 0.21 | 0.17 | 67 | 1017.9 |
| 20260506220025 | 38 | 98 | 2.0 | 7.0 | 0.00 | 0.21 | 0.17 | 64 | 1018.2 |
| 20260506215900 | 38 | 51 | 2.0 | 6.0 | 0.00 | 0.22 | 0.17 | 64 | 1017.9 |
| 20260506215358 | 38 | 32 | 1.0 | 5.0 | 0.00 | 0.22 | 0.17 | 66 | 1018.0 |
| 20260506214526 | 38 | 274 | 1.0 | 8.0 | 0.00 | 0.22 | 0.17 | 68 | 1018.6 |
| 20260506214356 | 38 | 5 | 2.0 | 7.0 | 0.00 | 0.22 | 0.17 | 66 | 1018.1 |
| 20260506213855 | 38 | 271 | 3.0 | 8.0 | 0.00 | 0.22 | 0.17 | 65 | 1018.1 |
| 20260506213355 | 38 | 37 | 3.0 | 8.0 | 0.00 | 0.22 | 0.17 | 65 | 1018.0 |
| 20260506213031 | 38 | 313 | 3.0 | 8.0 | 0.00 | 0.22 | 0.17 | 63 | 1018.3 |
| 20260506212854 | 39 | 326 | 3.0 | 12.0 | 0.00 | 0.22 | 0.17 | 65 | 1018.0 |
| 20260506211854 | 39 | 14 | 3.0 | 8.0 | 0.00 | 0.22 | 0.17 | 66 | 1018.0 |
| 20260506211521 | 39 | 23 | 4.0 | 9.0 | 0.00 | 0.22 | 0.17 | 66 | 1018.3 |
| 20260506211352 | 39 | 339 | 3.0 | 8.0 | 0.00 | 0.22 | 0.17 | 67 | 1018.0 |
| 20260506210351 | 38 | 322 | 3.0 | 9.0 | 0.00 | 0.22 | 0.17 | 70 | 1018.1 |
| 20260506210025 | 37 | 315 | 3.0 | 11.0 | 0.00 | 0.22 | 0.17 | 69 | 1018.5 |
| 20260506205851 | 37 | 298 | 4.0 | 10.0 | 0.00 | 0.22 | 0.17 | 70 | 1018.1 |
| 20260506205353 | 37 | 359 | 4.0 | 10.0 | 0.00 | 0.22 | 0.17 | 71 | 1018.0 |
| 20260506204850 | 37 | 283 | 3.0 | 8.0 | 0.00 | 0.22 | 0.17 | 72 | 1018.0 |
| 20260506204528 | 36 | 339 | 4.0 | 10.0 | 0.00 | 0.22 | 0.17 | 71 | 1018.3 |
| 20260506204351 | 37 | 344 | 3.0 | 9.0 | 0.00 | 0.22 | 0.17 | 72 | 1018.0 |
| 20260506203849 | 37 | 354 | 3.0 | 9.0 | 0.00 | 0.22 | 0.17 | 73 | 1018.1 |
| 20260506203350 | 37 | 44 | 2.0 | 8.0 | 0.00 | 0.22 | 0.17 | 72 | 1018.1 |
| 20260506203026 | 37 | 13 | 1.0 | 9.0 | 0.00 | 0.22 | 0.17 | 76 | 1018.6 |
| 20260506202349 | 37 | 30 | 3.0 | 8.0 | 0.00 | 0.22 | 0.17 | 74 | 1018.1 |
| 20260506201851 | 37 | 11 | 3.0 | 7.0 | 0.00 | 0.22 | 0.17 | 81 | 1018.1 |
| 20260506201528 | 35 | 306 | 2.0 | 10.0 | 0.00 | 0.22 | 0.17 | 78 | 1018.7 |
| 20260506201349 | 35 | 340 | 3.0 | 9.0 | 0.00 | 0.22 | 0.17 | 78 | 1018.2 |
| 20260506200851 | 35 | 287 | 3.0 | 9.0 | 0.01 | 0.22 | 0.17 | 76 | 1018.1 |
| 20260506200352 | 35 | 31 | 2.0 | 11.0 | 0.01 | 0.22 | 0.17 | 76 | 1018.0 |
| 20260506200024 | 35 | 55 | 2.0 | 12.0 | 0.02 | 0.22 | 0.17 | 76 | 1018.5 |
| 20260506195849 | 35 | 344 | 3.0 | 11.0 | 0.02 | 0.22 | 0.17 | 76 | 1018.1 |
| 20260506195350 | 35 | 1 | 3.0 | 9.0 | 0.03 | 0.22 | 0.17 | 75 | 1018.1 |
| 20260506194850 | 35 | 333 | 3.0 | 12.0 | 0.04 | 0.22 | 0.17 | 77 | 1018.0 |
| 20260506194524 | 35 | 296 | 2.0 | 13.0 | 0.04 | 0.22 | 0.17 | 76 | 1018.4 |
| 20260506194349 | 35 | 359 | 3.0 | 12.0 | 0.04 | 0.22 | 0.17 | 79 | 1018.0 |
| 20260506193851 | 35 | 342 | 3.0 | 8.0 | 0.05 | 0.22 | 0.17 | 77 | 1018.0 |
| 20260506193350 | 35 | 330 | 4.0 | 9.0 | 0.05 | 0.22 | 0.17 | 77 | 1017.9 |
| 20260506193030 | 35 | 349 | 2.0 | 10.0 | 0.05 | 0.22 | 0.17 | 78 | 1018.3 |
| 20260506192844 | 35 | 102 | 4.0 | 9.0 | 0.05 | 0.22 | 0.17 | 77 | 1018.0 |
| 20260506192338 | 35 | 312 | 3.0 | 8.0 | 0.06 | 0.23 | 0.17 | 78 | 1017.9 |
| 20260506191832 | 35 | 350 | 2.0 | 5.0 | 0.06 | 0.23 | 0.17 | 80 | 1018.0 |
| 20260506191530 | 35 | 5 | 2.0 | 5.0 | 0.06 | 0.23 | 0.17 | 81 | 1018.3 |
| 20260506191327 | 35 | 191 | 2.0 | 6.0 | 0.06 | 0.23 | 0.17 | 82 | 1018.0 |
| 20260506190820 | 35 | 340 | 2.0 | 7.0 | 0.06 | 0.22 | 0.16 | 85 | 1018.1 |
| 20260506190314 | 34 | 345 | 2.0 | 7.0 | 0.06 | 0.22 | 0.16 | 83 | 1018.0 |
| 20260506190022 | 33 | 43 | 0.0 | 6.0 | 0.05 | 0.21 | 0.15 | 87 | 1018.3 |
| 20260506185808 | 33 | 47 | 2.0 | 6.0 | 0.05 | 0.21 | 0.15 | 87 | 1018.0 |
| 20260506185306 | 33 | 327 | 1.0 | 5.0 | 0.05 | 0.20 | 0.14 | 88 | 1018.0 |
| 20260506184756 | 32 | 49 | 1.0 | 6.0 | 0.04 | 0.19 | 0.13 | 89 | 1018.1 |
| 20260506184524 | 32 | 61 | 0.0 | 6.0 | 0.04 | 0.19 | 0.13 | 88 | 1018.4 |
| 20260506184249 | 32 | 49 | 1.0 | 6.0 | 0.04 | 0.19 | 0.13 | 89 | 1018.1 |
| 20260506183238 | 32 | 46 | 1.0 | 4.0 | 0.04 | 0.19 | 0.12 | 88 | 1018.4 |
| 20260506183008 | 32 | 38 | 0.0 | 4.0 | 0.04 | 0.19 | 0.12 | 88 | 1018.9 |
| 20260506182732 | 32 | 297 | 1.0 | 4.0 | 0.04 | 0.19 | 0.12 | 88 | 1018.5 |
| 20260506182225 | 33 | 309 | 1.0 | 4.0 | 0.04 | 0.18 | 0.11 | 87 | 1018.4 |
| 20260506181720 | 33 | 8 | 0.0 | 4.0 | 0.04 | 0.18 | 0.11 | 89 | 1018.4 |
| 20260506181514 | 32 | 355 | 0.0 | 4.0 | 0.04 | 0.18 | 0.11 | 88 | 1018.8 |
| 20260506181214 | 32 | 25 | 1.0 | 5.0 | 0.03 | 0.17 | 0.10 | 89 | 1018.2 |
| 20260506180017 | 31 | 286 | 0.0 | 4.0 | 0.04 | 0.17 | 0.10 | 87 | 1018.9 |
| 20260506175656 | 31 | 337 | 1.0 | 4.0 | 0.03 | 0.16 | 0.10 | 87 | 1018.4 |
| 20260506175150 | 31 | 336 | 1.0 | 4.0 | 0.03 | 0.16 | 0.09 | 88 | 1018.2 |
| 20260506174644 | 31 | 278 | 1.0 | 4.0 | 0.04 | 0.17 | 0.09 | 89 | 1018.2 |
| 20260506174520 | 31 | 284 | 0.0 | 4.0 | 0.04 | 0.17 | 0.09 | 88 | 1018.7 |
| 20260506174138 | 31 | 284 | 1.0 | 4.0 | 0.04 | 0.17 | 0.09 | 88 | 1018.2 |
| 20260506173127 | 31 | 353 | 0.0 | 5.0 | 0.04 | 0.16 | 0.08 | 90 | 1018.1 |
| 20260506173026 | 30 | 324 | 0.0 | 5.0 | 0.04 | 0.16 | 0.08 | 90 | 1018.7 |
| 20260506172620 | 31 | 34 | 0.0 | 3.0 | 0.04 | 0.16 | 0.08 | 90 | 1018.0 |
| 20260506172114 | 31 | 359 | 0.0 | 4.0 | 0.03 | 0.15 | 0.07 | 90 | 1017.9 |
| 20260506171608 | 31 | 351 | 0.0 | 4.0 | 0.03 | 0.15 | 0.07 | 90 | 1017.9 |
| 20260506171527 | 30 | 331 | 1.0 | 8.0 | 0.03 | 0.15 | 0.07 | 90 | 1018.3 |
| 20260506171102 | 31 | 285 | 1.0 | 7.0 | 0.04 | 0.15 | 0.07 | 90 | 1018.1 |
| 20260506170556 | 30 | 347 | 2.0 | 7.0 | 0.03 | 0.14 | 0.06 | 89 | 1018.1 |
| 20260506170050 | 30 | 307 | 2.0 | 7.0 | 0.03 | 0.14 | 0.06 | 89 | 1018.1 |
| 20260506170014 | 30 | 234 | 1.0 | 8.0 | 0.03 | 0.14 | 0.06 | 88 | 1018.7 |
| 20260506165544 | 30 | 301 | 2.0 | 7.0 | 0.04 | 0.15 | 0.06 | 90 | 1018.0 |
| 20260506165038 | 30 | 344 | 3.0 | 7.0 | 0.04 | 0.15 | 0.06 | 89 | 1018.0 |
| 20260506164531 | 30 | 329 | 3.0 | 11.0 | 0.05 | 0.14 | 0.05 | 88 | 1018.0 |
| 20260506164520 | 30 | 5 | 2.0 | 12.0 | 0.05 | 0.14 | 0.05 | 88 | 1018.5 |
| 20260506164025 | 31 | 330 | 2.0 | 11.0 | 0.05 | 0.14 | 0.05 | 88 | 1017.9 |
| 20260506163519 | 31 | 344 | 2.0 | 5.0 | 0.05 | 0.14 | 0.05 | 88 | 1017.7 |
| 20260506163046 | 30 | 313 | 2.0 | 4.0 | 0.04 | 0.13 | 0.04 | 88 | 1018.3 |
| 20260506163014 | 31 | 311 | 1.0 | 4.0 | 0.04 | 0.13 | 0.04 | 88 | 1017.7 |
| 20260506162509 | 31 | 352 | 1.0 | 4.0 | 0.04 | 0.14 | 0.04 | 89 | 1017.6 |
| 20260506162002 | 31 | 43 | 1.0 | 4.0 | 0.04 | 0.14 | 0.04 | 89 | 1017.5 |
| 20260506161527 | 31 | 360 | 0.0 | 6.0 | 0.04 | 0.14 | 0.04 | 88 | 1018.0 |
| 20260506161457 | 31 | 34 | 1.0 | 6.0 | 0.03 | 0.13 | 0.03 | 88 | 1017.5 |
| 20260506160950 | 31 | 37 | 1.0 | 6.0 | 0.03 | 0.13 | 0.03 | 88 | 1017.6 |
| 20260506160444 | 31 | 1 | 1.0 | 4.0 | 0.03 | 0.14 | 0.03 | 90 | 1017.4 |
| 20260506160028 | 31 | 45 | 1.0 | 4.0 | 0.03 | 0.14 | 0.03 | 88 | 1017.6 |
| 20260506155432 | 31 | 45 | 1.0 | 4.0 | 0.02 | 0.13 | 0.02 | 89 | 1017.4 |
| 20260506154514 | 30 | 27 | 0.0 | 4.0 | 0.00 | 0.11 | 0.00 | 88 | 1017.8 |
| 20260506154420 | 31 | 20 | 1.0 | 4.0 | 0.00 | 0.11 | 0.00 | 88 | 1017.3 |
| 20260506153408 | 31 | 309 | 1.0 | 5.0 | 0.00 | 0.11 | 0.00 | 88 | 1017.1 |
| 20260506153017 | 30 | 38 | 0.0 | 5.0 | 0.00 | 0.11 | 0.00 | 87 | 1017.4 |
| 20260506152903 | 31 | 30 | 2.0 | 5.0 | 0.00 | 0.11 | 0.00 | 88 | 1017.0 |
| 20260506152356 | 31 | 24 | 2.0 | 5.0 | 0.00 | 0.11 | 0.00 | 88 | 1016.8 |
| 20260506151850 | 31 | 1 | 1.0 | 4.0 | 0.00 | 0.11 | 0.00 | 88 | 1016.9 |
| 20260506151523 | 30 | 74 | 0.0 | 6.0 | 0.00 | 0.11 | 0.00 | 89 | 1017.3 |
| 20260506151344 | 31 | 103 | 1.0 | 6.0 | 0.00 | 0.11 | 0.00 | 89 | 1017.0 |
| 20260506150343 | 30 | 51 | 3.0 | 6.0 | 0.00 | 0.11 | 0.00 | 88 | 1016.6 |
| 20260506150027 | 29 | 61 | 3.0 | 5.0 | 0.00 | 0.11 | 0.00 | 87 | 1017.1 |
| 20260506145843 | 30 | 55 | 2.0 | 5.0 | 0.00 | 0.11 | 0.00 | 88 | 1016.8 |
| 20260506145342 | 30 | 66 | 2.0 | 5.0 | 0.00 | 0.11 | 0.00 | 88 | 1017.0 |
| 20260506144842 | 30 | 34 | 2.0 | 5.0 | 0.00 | 0.11 | 0.00 | 88 | 1016.8 |
| 20260506144528 | 29 | 5 | 1.0 | 5.0 | 0.00 | 0.11 | 0.00 | 87 | 1017.2 |
| 20260506143840 | 30 | 37 | 2.0 | 5.0 | 0.00 | 0.11 | 0.00 | 88 | 1016.8 |
| 20260506143340 | 30 | 58 | 2.0 | 7.0 | 0.00 | 0.11 | 0.00 | 88 | 1016.8 |
| 20260506143018 | 29 | 53 | 0.0 | 8.0 | 0.00 | 0.11 | 0.00 | 86 | 1017.1 |
| 20260506142840 | 30 | 336 | 2.0 | 7.0 | 0.00 | 0.11 | 0.00 | 87 | 1016.6 |
| 20260506142343 | 30 | 41 | 1.0 | 5.0 | 0.00 | 0.11 | 0.00 | 88 | 1016.5 |
| 20260506141841 | 30 | 39 | 1.0 | 6.0 | 0.00 | 0.11 | 0.00 | 88 | 1016.6 |
| 20260506141524 | 29 | 53 | 1.0 | 6.0 | 0.00 | 0.11 | 0.00 | 86 | 1017.1 |
| 20260506141339 | 30 | 359 | 1.0 | 6.0 | 0.00 | 0.11 | 0.00 | 87 | 1016.6 |
| 20260506140840 | 30 | 43 | 1.0 | 3.0 | 0.00 | 0.11 | 0.00 | 88 | 1016.6 |
| 20260506140337 | 30 | 51 | 1.0 | 5.0 | 0.00 | 0.11 | 0.00 | 89 | 1016.6 |
| 20260506140024 | 29 | 40 | 0.0 | 5.0 | 0.00 | 0.11 | 0.00 | 89 | 1017.1 |
| 20260506135838 | 29 | 29 | 1.0 | 5.0 | 0.00 | 0.11 | 0.00 | 89 | 1016.6 |
| 20260506135333 | 29 | 49 | 1.0 | 4.0 | 0.00 | 0.11 | 0.00 | 89 | 1016.5 |
| 20260506134833 | 29 | 5 | 1.0 | 6.0 | 0.00 | 0.11 | 0.00 | 89 | 1016.5 |
| 20260506134526 | 29 | 43 | 1.0 | 6.0 | 0.00 | 0.11 | 0.00 | 89 | 1016.8 |
| 20260506134333 | 29 | 9 | 1.0 | 6.0 | 0.00 | 0.11 | 0.00 | 90 | 1016.5 |
| 20260506133834 | 29 | 31 | 1.0 | 4.0 | 0.00 | 0.11 | 0.00 | 90 | 1016.4 |
| 20260506133334 | 29 | 48 | 1.0 | 4.0 | 0.00 | 0.11 | 0.00 | 90 | 1016.3 |
| 20260506133026 | 28 | 42 | 0.0 | 4.0 | 0.00 | 0.11 | 0.00 | 90 | 1016.6 |
| 20260506132834 | 29 | 44 | 1.0 | 4.0 | 0.00 | 0.11 | 0.00 | 90 | 1016.2 |
| 20260506132332 | 29 | 30 | 1.0 | 4.0 | 0.00 | 0.11 | 0.00 | 90 | 1016.2 |
| 20260506131834 | 29 | 37 | 1.0 | 4.0 | 0.00 | 0.11 | 0.00 | 90 | 1015.9 |
| 20260506131519 | 28 | 42 | 0.0 | 3.0 | 0.00 | 0.11 | 0.00 | 90 | 1016.4 |
| 20260506131333 | 29 | 25 | 0.0 | 3.0 | 0.00 | 0.11 | 0.00 | 91 | 1016.0 |
| 20260506130832 | 28 | 351 | 0.0 | 3.0 | 0.00 | 0.11 | 0.00 | 91 | 1016.0 |
| 20260506130332 | 28 | 1 | 0.0 | 3.0 | 0.00 | 0.11 | 0.00 | 91 | 1015.9 |
| 20260506130024 | 28 | 331 | 0.0 | 3.0 | 0.00 | 0.11 | 0.00 | 91 | 1016.3 |
| 20260506125831 | 28 | 330 | 1.0 | 3.0 | 0.00 | 0.11 | 0.00 | 91 | 1015.9 |
| 20260506125333 | 28 | 302 | 1.0 | 3.0 | 0.00 | 0.11 | 0.00 | 91 | 1015.9 |
| 20260506124827 | 28 | 331 | 1.0 | 3.0 | 0.00 | 0.11 | 0.00 | 92 | 1015.8 |
| 20260506124525 | 27 | 313 | 0.0 | 3.0 | 0.00 | 0.11 | 0.00 | 91 | 1016.1 |
| 20260506123828 | 28 | 4 | 1.0 | 4.0 | 0.00 | 0.11 | 0.00 | 92 | 1015.5 |
| 20260506123327 | 28 | 344 | 0.0 | 3.0 | 0.00 | 0.11 | 0.00 | 92 | 1015.4 |
| 20260506123026 | 27 | 61 | 0.0 | 4.0 | 0.00 | 0.11 | 0.00 | 92 | 1015.6 |
| 20260506122828 | 28 | 56 | 1.0 | 4.0 | 0.00 | 0.11 | 0.00 | 92 | 1015.3 |
| 20260506122328 | 28 | 46 | 1.0 | 4.0 | 0.00 | 0.11 | 0.00 | 92 | 1015.2 |
| 20260506121827 | 28 | 21 | 1.0 | 4.0 | 0.00 | 0.11 | 0.00 | 92 | 1015.2 |
| 20260506121530 | 27 | 14 | 0.0 | 5.0 | 0.00 | 0.11 | 0.00 | 91 | 1015.4 |
| 20260506121327 | 28 | 46 | 1.0 | 5.0 | 0.00 | 0.11 | 0.00 | 91 | 1015.1 |
| 20260506120829 | 28 | 1 | 1.0 | 5.0 | 0.00 | 0.11 | 0.00 | 91 | 1015.1 |
| 20260506120327 | 28 | 357 | 1.0 | 6.0 | 0.00 | 0.11 | 0.00 | 91 | 1014.9 |
| 20260506120019 | 28 | 19 | 0.0 | 6.0 | 0.00 | 0.11 | 0.00 | 91 | 1015.3 |
| 20260506115828 | 28 | 1 | 2.0 | 6.0 | 0.00 | 0.11 | 0.00 | 91 | 1014.9 |
| 20260506115327 | 28 | 351 | 2.0 | 5.0 | 0.00 | 0.11 | 0.00 | 91 | 1015.1 |
| 20260506114826 | 28 | 324 | 2.0 | 5.0 | 0.00 | 0.11 | 0.00 | 91 | 1015.1 |
| 20260506114532 | 28 | 342 | 0.0 | 8.0 | 0.00 | 0.11 | 0.00 | 91 | 1015.4 |
| 20260506114328 | 28 | 341 | 3.0 | 7.0 | 0.00 | 0.11 | 0.00 | 91 | 1014.9 |
| 20260506113827 | 28 | 359 | 3.0 | 7.0 | 0.00 | 0.11 | 0.00 | 91 | 1014.9 |
| 20260506113328 | 28 | 359 | 3.0 | 7.0 | 0.00 | 0.11 | 0.00 | 91 | 1015.1 |
| 20260506113026 | 28 | 315 | 2.0 | 9.0 | 0.00 | 0.11 | 0.00 | 90 | 1015.5 |
| 20260506112828 | 29 | 335 | 2.0 | 8.0 | 0.00 | 0.11 | 0.00 | 91 | 1015.1 |
| 20260506112328 | 29 | 290 | 1.0 | 8.0 | 0.00 | 0.11 | 0.00 | 91 | 1014.9 |
| 20260506111530 | 28 | 321 | 0.0 | 8.0 | 0.00 | 0.11 | 0.00 | 90 | 1015.2 |
| 20260506111326 | 29 | 335 | 2.0 | 7.0 | 0.00 | 0.11 | 0.00 | 91 | 1014.8 |
| 20260506110828 | 29 | 328 | 2.0 | 9.0 | 0.00 | 0.11 | 0.00 | 90 | 1014.8 |
| 20260506110327 | 29 | 349 | 2.0 | 9.0 | 0.00 | 0.11 | 0.00 | 90 | 1014.7 |
| 20260506110031 | 28 | 320 | 2.0 | 10.0 | 0.00 | 0.11 | 0.00 | 89 | 1015.1 |
| 20260506105826 | 29 | 0 | 3.0 | 8.0 | 0.00 | 0.11 | 0.00 | 90 | 1014.7 |
| 20260506105327 | 29 | 347 | 3.0 | 9.0 | 0.00 | 0.11 | 0.00 | 90 | 1014.6 |
| 20260506104827 | 29 | 351 | 3.0 | 9.0 | 0.00 | 0.11 | 0.00 | 89 | 1014.6 |
| 20260506104528 | 29 | 313 | 1.0 | 8.0 | 0.00 | 0.11 | 0.00 | 89 | 1015.0 |
| 20260506104326 | 29 | 328 | 3.0 | 7.0 | 0.00 | 0.11 | 0.00 | 89 | 1014.4 |
| 20260506103828 | 29 | 337 | 3.0 | 9.0 | 0.00 | 0.11 | 0.00 | 90 | 1014.4 |
| 20260506103328 | 29 | 314 | 3.0 | 9.0 | 0.00 | 0.11 | 0.00 | 89 | 1014.4 |
| 20260506103024 | 29 | 319 | 2.0 | 7.0 | 0.00 | 0.11 | 0.00 | 89 | 1014.9 |
| 20260506102827 | 29 | 351 | 2.0 | 7.0 | 0.00 | 0.11 | 0.00 | 89 | 1014.3 |
| 20260506102328 | 29 | 1 | 2.0 | 7.0 | 0.00 | 0.11 | 0.00 | 89 | 1014.4 |
| 20260506101827 | 29 | 347 | 2.0 | 6.0 | 0.00 | 0.11 | 0.00 | 89 | 1014.4 |
| 20260506101529 | 29 | 9 | 1.0 | 9.0 | 0.00 | 0.11 | 0.00 | 88 | 1014.8 |
| 20260506101327 | 29 | 359 | 2.0 | 8.0 | 0.00 | 0.11 | 0.00 | 88 | 1014.4 |
| 20260506100826 | 29 | 334 | 1.0 | 8.0 | 0.00 | 0.11 | 0.00 | 89 | 1014.4 |
| 20260506100327 | 30 | 323 | 1.0 | 6.0 | 0.00 | 0.11 | 0.00 | 88 | 1014.4 |
| 20260506100013 | 29 | 324 | 2.0 | 7.0 | 0.00 | 0.11 | 0.00 | 87 | 1014.8 |
| 20260506095322 | 30 | 352 | 1.0 | 5.0 | 0.00 | 0.11 | 0.00 | 88 | 1014.4 |
| 20260506094823 | 30 | 347 | 2.0 | 8.0 | 0.00 | 0.11 | 0.00 | 88 | 1014.3 |
| 20260506094519 | 29 | 338 | 0.0 | 9.0 | 0.00 | 0.11 | 0.00 | 87 | 1014.8 |
| 20260506094323 | 30 | 330 | 3.0 | 8.0 | 0.00 | 0.11 | 0.00 | 87 | 1014.3 |
| 20260506093819 | 30 | 321 | 2.0 | 8.0 | 0.00 | 0.11 | 0.00 | 88 | 1014.2 |
| 20260506093319 | 30 | 1 | 3.0 | 9.0 | 0.00 | 0.11 | 0.00 | 87 | 1014.1 |
| 20260506093004 | 29 | 298 | 3.0 | 10.0 | 0.00 | 0.11 | 0.00 | 87 | 1014.6 |
| 20260506092818 | 30 | 295 | 2.0 | 9.0 | 0.00 | 0.11 | 0.00 | 88 | 1014.2 |
| 20260506092317 | 30 | 340 | 3.0 | 10.0 | 0.00 | 0.11 | 0.00 | 88 | 1014.2 |
| 20260506091816 | 30 | 347 | 3.0 | 10.0 | 0.00 | 0.11 | 0.00 | 87 | 1014.2 |
| 20260506091509 | 30 | 355 | 3.0 | 12.0 | 0.00 | 0.11 | 0.00 | 87 | 1014.7 |
| 20260506091314 | 30 | 325 | 3.0 | 11.0 | 0.00 | 0.11 | 0.00 | 87 | 1014.1 |
| 20260506090814 | 30 | 351 | 3.0 | 11.0 | 0.00 | 0.11 | 0.00 | 87 | 1014.2 |
| 20260506090312 | 30 | 342 | 3.0 | 11.0 | 0.00 | 0.11 | 0.00 | 87 | 1014.1 |
| 20260506090009 | 30 | 315 | 3.0 | 10.0 | 0.00 | 0.11 | 0.00 | 86 | 1014.6 |
| 20260506085812 | 30 | 330 | 3.0 | 11.0 | 0.00 | 0.11 | 0.00 | 87 | 1014.2 |
| 20260506085308 | 30 | 345 | 3.0 | 11.0 | 0.00 | 0.11 | 0.00 | 87 | 1014.3 |
| 20260506084808 | 30 | 341 | 3.0 | 8.0 | 0.00 | 0.11 | 0.00 | 87 | 1014.2 |
| 20260506084515 | 30 | 331 | 2.0 | 9.0 | 0.00 | 0.11 | 0.00 | 87 | 1014.6 |
| 20260506084309 | 30 | 333 | 3.0 | 9.0 | 0.00 | 0.11 | 0.00 | 88 | 1014.2 |
| 20260506083304 | 30 | 323 | 3.0 | 11.0 | 0.00 | 0.11 | 0.00 | 88 | 1014.2 |
| 20260506083019 | 30 | 355 | 3.0 | 15.0 | 0.00 | 0.11 | 0.00 | 87 | 1014.6 |
| 20260506082803 | 30 | 27 | 3.0 | 14.0 | 0.00 | 0.11 | 0.00 | 88 | 1014.2 |
| 20260506081800 | 30 | 334 | 4.0 | 10.0 | 0.00 | 0.11 | 0.00 | 88 | 1014.2 |
| 20260506081503 | 30 | 328 | 3.0 | 11.0 | 0.00 | 0.11 | 0.00 | 87 | 1014.6 |
| 20260506081301 | 30 | 314 | 3.0 | 10.0 | 0.00 | 0.11 | 0.00 | 87 | 1014.1 |
| 20260506080801 | 30 | 331 | 3.0 | 13.0 | 0.00 | 0.11 | 0.00 | 87 | 1014.1 |
| 20260506080302 | 30 | 339 | 4.0 | 13.0 | 0.00 | 0.11 | 0.00 | 87 | 1014.1 |
| 20260506073256 | 30 | 306 | 3.0 | 8.0 | 0.00 | 0.11 | 0.00 | 88 | 1014.1 |
| 20260506073018 | 30 | 349 | 3.0 | 9.0 | 0.00 | 0.11 | 0.00 | 87 | 1014.4 |
| 20260506072757 | 30 | 353 | 3.0 | 8.0 | 0.00 | 0.11 | 0.00 | 88 | 1014.1 |
| 20260506072254 | 30 | 279 | 2.0 | 7.0 | 0.00 | 0.11 | 0.00 | 89 | 1014.1 |
| 20260506071754 | 30 | 359 | 2.0 | 7.0 | 0.00 | 0.11 | 0.00 | 89 | 1014.0 |
| 20260506071529 | 30 | 319 | 3.0 | 8.0 | 0.00 | 0.11 | 0.00 | 89 | 1014.4 |
| 20260506071255 | 30 | 328 | 1.0 | 6.0 | 0.00 | 0.11 | 0.00 | 90 | 1014.0 |
| 20260506070750 | 31 | 316 | 2.0 | 6.0 | 0.00 | 0.11 | 0.00 | 90 | 1014.1 |
| 20260506070243 | 31 | 324 | 2.0 | 7.0 | 0.00 | 0.11 | 0.00 | 90 | 1014.0 |
| 20260506062155 | 31 | 302 | 1.0 | 6.0 | 0.00 | 0.11 | 0.00 | 91 | 1014.0 |
| 20260506061649 | 31 | 300 | 1.0 | 6.0 | 0.00 | 0.11 | 0.00 | 91 | 1014.0 |
| 20260506061529 | 30 | 309 | 0.0 | 7.0 | 0.00 | 0.11 | 0.00 | 90 | 1014.4 |
| 20260506061149 | 31 | 304 | 3.0 | 8.0 | 0.00 | 0.11 | 0.00 | 90 | 1014.0 |
| 20260506060650 | 31 | 335 | 3.0 | 8.0 | 0.00 | 0.12 | 0.00 | 90 | 1013.8 |
| 20260506060148 | 31 | 308 | 2.0 | 8.0 | 0.00 | 0.12 | 0.00 | 90 | 1013.7 |